Вернуться в каталог

COSMOS 2434

GLONASS

АктивенНавигацияMEO
NORAD 32393·PAYLOAD·🇷🇺 Russia

Запущен Dec 25, 2007 с Baikonur Cosmodrome

Loading…

Ближайшие Пролёты (ближайшие 24 часа)

TLE

СвежийSource: CelesTrak SupGP

Эпоха: Sep 12, 2026, 23:59 UTC

1 32393C 07065A   26255.99979167  .00000000  00000+0  00000+0 0  2558
2 32393  64.3191 188.9561 0001714  41.2433 103.5928  2.13101096    16

Отслеживайте COSMOS 2434 в реальном времени с AllMySat

Download on the App Store